QPF
0.00 0.00 0.01 0.01 0.02 0.02 0.01 0.00 0.01 0.02 0.02 0.01 0.02 0.04 0.07 0.11 0.12 0.09 0.05 0.04 0.05 0.04 0.04 0.04 0.04 0.04 0.04 0.04 0.04 0.05 0.06 0.06 0.06 0.07 0.08 0.11 0.12 0.13 0.10 0.10 0.13 0.14 0.12
0.01 0.01 0.01 0.01 0.01 0.01 0.01 0.01 0.01 0.02 0.01 0.01 0.01 0.03 0.09 0.11 0.10 0.06 0.04 0.04 0.04 0.04 0.04 0.04 0.03 0.03 0.03 0.03 0.03 0.04 0.04 0.04 0.05 0.06 0.07 0.11 0.13 0.15 0.12 0.09 0.09 0.12 0.11
0.00 0.00 0.01 0.01 0.01 0.01 0.01 0.01 0.01 0.01 0.01 0.01 0.01 0.01 0.05 0.06 0.03 0.02 0.03 0.04 0.05 0.04 0.04 0.04 0.05 0.05 0.04 0.04 0.04 0.05 0.04 0.04 0.05 0.04 0.04 0.06 0.08 0.10 0.11 0.09 0.09 0.10 0.11
0.00 0.01 0.01 0.01 0.01 0.01 0.01 0.01 0.01 0.01 0.02 0.02 0.02 0.01 0.01 0.01 0.01 0.01 0.02 0.03 0.04 0.03 0.03 0.04 0.04 0.04 0.05 0.05 0.06 0.07 0.06 0.05 0.05 0.05 0.04 0.04 0.05 0.06 0.07 0.07 0.08 0.09 0.08
0.00 0.01 0.01 0.02 0.01 0.01 0.01 0.01 0.01 0.01 0.02 0.02 0.02 0.01 0.01 0.00 0.00 0.01 0.01 0.02 0.02 0.02 0.02 0.02 0.03 0.03 0.04 0.06 0.06 0.06 0.05 0.04 0.04 0.04 0.05 0.05 0.04 0.04 0.04 0.05 0.06 0.07 0.07
0.01 0.01 0.01 0.02 0.02 0.01 0.01 0.02 0.02 0.01 0.02 0.02 0.02 0.01 0.01 0.00 0.00 0.01 0.01 0.01 0.01 0.01 0.01 0.01 0.02 0.03 0.03 0.04 0.07 0.08 0.05 0.03 0.02 0.02 0.03 0.03 0.04 0.05 0.04 0.04 0.05 0.06 0.06
0.01 0.01 0.01 0.02 0.02 0.02 0.01 0.01 0.02 0.02 0.02 0.02 0.01 0.01 0.01 0.00 0.00 0.01 0.01 0.00 0.00 0.00 0.00 0.00 0.01 0.02 0.02 0.05 0.05 0.06 0.07 0.05 0.03 0.03 0.04 0.04 0.04 0.05 0.05 0.05 0.05 0.06 0.07
0.03 0.03 0.02 0.01 0.03 0.03 0.02 0.01 0.01 0.01 0.02 0.01 0.02 0.02 0.01 0.00 0.00 0.01 0.01 0.00 0.00 0.00 0.00 0.01 0.01 0.02 0.02 0.03 0.05 0.05 0.05 0.06 0.07 0.06 0.05 0.04 0.04 0.05 0.05 0.06 0.06 0.06 0.06
0.01 0.02 0.02 0.02 0.04 0.04 0.04 0.03 0.03 0.03 0.03 0.02 0.03 0.02 0.01 0.01 0.01 0.01 0.00 0.00 0.01 0.00 0.01 0.01 0.01 0.02 0.03 0.04 0.04 0.04 0.03 0.04 0.05 0.06 0.05 0.04 0.04 0.03 0.03 0.04 0.04 0.04 0.05
0.02 0.02 0.05 0.07 0.07 0.07 0.08 0.06 0.04 0.03 0.03 0.03 0.03 0.03 0.01 0.01 0.01 0.01 0.01 0.01 0.01 0.01 0.01 0.01 0.01 0.01 0.03 0.05 0.06 0.05 0.04 0.03 0.03 0.03 0.03 0.03 0.03 0.02 0.02 0.02 0.03 0.03 0.03
0.03 0.03 0.05 0.07 0.12 0.10 0.12 0.11 0.08 0.05 0.03 0.02 0.03 0.02 0.01 0.01 0.01 0.01 0.01 0.01 0.01 0.01 0.01 0.01 0.01 0.01 0.01 0.02 0.04 0.05 0.04 0.04 0.04 0.03 0.02 0.02 0.02 0.02 0.02 0.02 0.03 0.03 0.02
0.03 0.04 0.04 0.04 0.09 0.13 0.14 0.13 0.11 0.08 0.04 0.03 0.02 0.02 0.02 0.02 0.02 0.02 0.02 0.02 0.02 0.02 0.01 0.01 0.01 0.01 0.01 0.01 0.01 0.02 0.03 0.04 0.05 0.04 0.03 0.03 0.03 0.03 0.03 0.03 0.02 0.03 0.03
0.03 0.04 0.05 0.04 0.06 0.14 0.16 0.12 0.09 0.06 0.03 0.03 0.03 0.04 0.05 0.07 0.08 0.08 0.07 0.04 0.03 0.02 0.02 0.01 0.01 0.02 0.01 0.01 0.01 0.01 0.02 0.03 0.03 0.03 0.04 0.04 0.04 0.03 0.02 0.03 0.03 0.04 0.04
0.02 0.02 0.05 0.06 0.07 0.08 0.06 0.06 0.06 0.04 0.03 0.04 0.05 0.05 0.07 0.10 0.12 0.12 0.08 0.05 0.03 0.02 0.02 0.01 0.02 0.03 0.02 0.01 0.01 0.01 0.01 0.02 0.02 0.03 0.03 0.03 0.03 0.02 0.02 0.03 0.04 0.05 0.06
0.01 0.02 0.04 0.03 0.03 0.03 0.03 0.02 0.02 0.03 0.04 0.05 0.07 0.08 0.10 0.11 0.12 0.10 0.07 0.04 0.03 0.03 0.03 0.03 0.02 0.03 0.02 0.01 0.01 0.01 0.02 0.02 0.02 0.02 0.02 0.02 0.02 0.02 0.02 0.02 0.03 0.03 0.03
0.02 0.02 0.02 0.02 0.02 0.02 0.01 0.01 0.02 0.04 0.06 0.06 0.08 0.10 0.11 0.09 0.07 0.05 0.04 0.03 0.03 0.03 0.03 0.03 0.03 0.02 0.02 0.02 0.02 0.02 0.01 0.02 0.02 0.02 0.02 0.03 0.03 0.02 0.03 0.04 0.04 0.04 0.04
0.03 0.03 0.03 0.03 0.02 0.02 0.02 0.03 0.03 0.05 0.08 0.10 0.10 0.10 0.09 0.07 0.06 0.05 0.04 0.03 0.03 0.03 0.03 0.03 0.04 0.03 0.03 0.03 0.03 0.04 0.03 0.02 0.02 0.02 0.02 0.03 0.03 0.03 0.03 0.03 0.04 0.03 0.03
0.05 0.05 0.03 0.03 0.02 0.02 0.03 0.04 0.06 0.08 0.09 0.09 0.08 0.08 0.09 0.10 0.11 0.10 0.07 0.06 0.06 0.05 0.05 0.05 0.06 0.05 0.04 0.05 0.04 0.05 0.05 0.04 0.03 0.02 0.02 0.02 0.02 0.02 0.03 0.04 0.03 0.03 0.03
0.07 0.06 0.05 0.04 0.04 0.04 0.03 0.04 0.05 0.05 0.06 0.07 0.07 0.11 0.13 0.11 0.10 0.10 0.09 0.09 0.09 0.08 0.07 0.06 0.05 0.04 0.04 0.05 0.05 0.07 0.07 0.05 0.05 0.04 0.05 0.05 0.04 0.04 0.07 0.07 0.04 0.03 0.03
0.07 0.05 0.04 0.03 0.03 0.04 0.04 0.04 0.05 0.05 0.05 0.07 0.11 0.13 0.14 0.13 0.11 0.10 0.09 0.08 0.08 0.08 0.06 0.04 0.03 0.03 0.03 0.04 0.05 0.06 0.07 0.06 0.05 0.05 0.05 0.05 0.05 0.05 0.06 0.05 0.03 0.03 0.03
0.05 0.05 0.05 0.04 0.03 0.03 0.03 0.06 0.06 0.07 0.08 0.08 0.09 0.14 0.13 0.12 0.11 0.10 0.09 0.08 0.08 0.07 0.06 0.05 0.04 0.04 0.05 0.06 0.06 0.06 0.05 0.04 0.04 0.04 0.03 0.04 0.04 0.05 0.06 0.06 0.04 0.03 0.05
0.05 0.04 0.03 0.03 0.04 0.03 0.03 0.03 0.04 0.05 0.06 0.06 0.06 0.08 0.08 0.08 0.09 0.08 0.08 0.08 0.07 0.08 0.08 0.07 0.06 0.05 0.05 0.06 0.06 0.07 0.06 0.06 0.07 0.06 0.06 0.06 0.07 0.07 0.07 0.07 0.06 0.06 0.07
0.03 0.02 0.01 0.01 0.02 0.02 0.02 0.02 0.03 0.04 0.05 0.05 0.07 0.09 0.10 0.08 0.08 0.08 0.08 0.08 0.08 0.10 0.13 0.14 0.11 0.07 0.06 0.05 0.06 0.06 0.08 0.09 0.09 0.10 0.10 0.09 0.09 0.08 0.08 0.07 0.07 0.07 0.06
0.02 0.02 0.01 0.01 0.01 0.01 0.01 0.01 0.02 0.02 0.02 0.03 0.04 0.04 0.05 0.05 0.05 0.06 0.06 0.06 0.08 0.10 0.13 0.13 0.11 0.09 0.07 0.06 0.06 0.06 0.07 0.08 0.08 0.08 0.08 0.08 0.08 0.08 0.07 0.07 0.07 0.05 0.05
0.04 0.03 0.02 0.02 0.01 0.01 0.01 0.02 0.02 0.02 0.01 0.02 0.02 0.01 0.02 0.03 0.04 0.04 0.05 0.05 0.06 0.08 0.10 0.09 0.08 0.07 0.07 0.08 0.09 0.09 0.09 0.11 0.10 0.09 0.09 0.08 0.08 0.08 0.08 0.08 0.08 0.07 0.06
0.04 0.03 0.03 0.02 0.02 0.02 0.02 0.02 0.02 0.03 0.02 0.01 0.02 0.02 0.02 0.03 0.04 0.03 0.03 0.04 0.05 0.05 0.05 0.05 0.05 0.05 0.05 0.05 0.05 0.04 0.06 0.10 0.12 0.10 0.10 0.11 0.11 0.10 0.09 0.08 0.08 0.08 0.07
MSLP
1011.26 1011.65 1012.00 1012.27 1012.47 1012.61 1012.72 1012.85 1013.01 1013.22 1013.47 1013.72 1013.94 1014.10 1014.17 1014.15 1014.06 1013.93 1013.80 1013.71 1013.67 1013.72 1013.82 1013.97 1014.14 1014.30 1014.44 1014.55 1014.64 1014.71 1014.78 1014.86 1014.93 1015.00 1015.05 1015.05 1015.00 1014.89 1014.73 1014.55 1014.36 1014.20 1014.08
1010.96 1011.40 1011.80 1012.10 1012.31 1012.44 1012.53 1012.64 1012.80 1013.03 1013.32 1013.64 1013.94 1014.17 1014.30 1014.33 1014.26 1014.13 1013.99 1013.87 1013.83 1013.86 1013.96 1014.11 1014.29 1014.45 1014.59 1014.69 1014.77 1014.82 1014.89 1014.97 1015.07 1015.18 1015.29 1015.37 1015.40 1015.37 1015.28 1015.13 1014.96 1014.79 1014.64
1010.42 1010.92 1011.37 1011.72 1011.96 1012.11 1012.22 1012.34 1012.52 1012.79 1013.15 1013.54 1013.93 1014.25 1014.46 1014.55 1014.52 1014.42 1014.28 1014.16 1014.11 1014.13 1014.23 1014.39 1014.56 1014.73 1014.86 1014.96 1015.01 1015.05 1015.10 1015.18 1015.29 1015.44 1015.60 1015.75 1015.86 1015.91 1015.88 1015.78 1015.64 1015.48 1015.32
1009.66 1010.23 1010.76 1011.18 1011.48 1011.68 1011.82 1011.97 1012.19 1012.51 1012.93 1013.40 1013.87 1014.29 1014.59 1014.75 1014.78 1014.71 1014.60 1014.49 1014.44 1014.46 1014.57 1014.73 1014.92 1015.09 1015.23 1015.31 1015.35 1015.38 1015.41 1015.48 1015.61 1015.78 1015.98 1016.18 1016.34 1016.46 1016.49 1016.44 1016.33 1016.19 1016.03
1008.81 1009.45 1010.07 1010.58 1010.96 1011.21 1011.40 1011.59 1011.85 1012.21 1012.67 1013.21 1013.75 1014.25 1014.63 1014.87 1014.96 1014.94 1014.86 1014.79 1014.75 1014.80 1014.92 1015.10 1015.30 1015.49 1015.63 1015.72 1015.76 1015.78 1015.80 1015.86 1015.98 1016.16 1016.38 1016.61 1016.82 1016.98 1017.06 1017.05 1016.97 1016.84 1016.69
1008.00 1008.72 1009.42 1010.03 1010.48 1010.80 1011.04 1011.26 1011.54 1011.92 1012.41 1012.98 1013.57 1014.12 1014.57 1014.87 1015.03 1015.07 1015.04 1015.00 1015.00 1015.07 1015.22 1015.43 1015.66 1015.87 1016.04 1016.15 1016.19 1016.21 1016.23 1016.29 1016.40 1016.58 1016.80 1017.05 1017.28 1017.46 1017.56 1017.58 1017.53 1017.41 1017.26
1007.37 1008.15 1008.94 1009.62 1010.14 1010.51 1010.77 1011.01 1011.29 1011.66 1012.15 1012.73 1013.35 1013.93 1014.43 1014.78 1015.00 1015.10 1015.12 1015.13 1015.18 1015.29 1015.47 1015.72 1015.98 1016.23 1016.42 1016.56 1016.62 1016.65 1016.67 1016.73 1016.83 1016.99 1017.21 1017.45 1017.68 1017.87 1017.99 1018.02 1017.98 1017.87 1017.73
1006.98 1007.82 1008.67 1009.40 1009.97 1010.36 1010.63 1010.86 1011.12 1011.47 1011.95 1012.51 1013.13 1013.73 1014.25 1014.65 1014.91 1015.07 1015.14 1015.20 1015.29 1015.44 1015.67 1015.95 1016.25 1016.53 1016.76 1016.92 1017.02 1017.07 1017.10 1017.15 1017.24 1017.39 1017.59 1017.82 1018.04 1018.22 1018.34 1018.38 1018.34 1018.24 1018.09
1006.87 1007.74 1008.62 1009.37 1009.94 1010.33 1010.59 1010.79 1011.02 1011.35 1011.80 1012.35 1012.96 1013.56 1014.10 1014.54 1014.84 1015.04 1015.16 1015.26 1015.39 1015.57 1015.83 1016.14 1016.47 1016.78 1017.04 1017.24 1017.36 1017.43 1017.47 1017.52 1017.61 1017.75 1017.93 1018.14 1018.35 1018.52 1018.63 1018.67 1018.63 1018.53 1018.38
1006.97 1007.86 1008.72 1009.45 1010.00 1010.36 1010.59 1010.77 1010.98 1011.29 1011.72 1012.27 1012.88 1013.49 1014.05 1014.51 1014.84 1015.07 1015.22 1015.35 1015.50 1015.70 1015.97 1016.29 1016.64 1016.97 1017.26 1017.48 1017.63 1017.72 1017.78 1017.83 1017.92 1018.05 1018.21 1018.41 1018.60 1018.76 1018.86 1018.90 1018.86 1018.76 1018.62
1007.21 1008.07 1008.89 1009.57 1010.07 1010.39 1010.59 1010.76 1010.97 1011.28 1011.73 1012.29 1012.91 1013.55 1014.13 1014.60 1014.95 1015.19 1015.35 1015.49 1015.63 1015.83 1016.10 1016.42 1016.77 1017.11 1017.41 1017.65 1017.82 1017.93 1018.01 1018.07 1018.16 1018.28 1018.43 1018.61 1018.79 1018.94 1019.04 1019.07 1019.03 1018.94 1018.79
1007.47 1008.28 1009.03 1009.63 1010.07 1010.34 1010.53 1010.71 1010.95 1011.31 1011.80 1012.41 1013.07 1013.74 1014.33 1014.82 1015.17 1015.40 1015.55 1015.66 1015.78 1015.96 1016.20 1016.50 1016.84 1017.18 1017.49 1017.75 1017.94 1018.07 1018.16 1018.24 1018.33 1018.44 1018.59 1018.75 1018.91 1019.05 1019.14 1019.16 1019.13 1019.03 1018.89
1007.69 1008.42 1009.08 1009.59 1009.96 1010.21 1010.41 1010.62 1010.93 1011.36 1011.93 1012.61 1013.33 1014.02 1014.64 1015.12 1015.45 1015.66 1015.77 1015.84 1015.93 1016.06 1016.27 1016.54 1016.86 1017.20 1017.51 1017.78 1017.98 1018.13 1018.24 1018.33 1018.42 1018.53 1018.66 1018.80 1018.95 1019.07 1019.14 1019.16 1019.11 1019.02 1018.87
1007.81 1008.46 1009.02 1009.45 1009.77 1010.01 1010.24 1010.52 1010.92 1011.46 1012.12 1012.87 1013.65 1014.37 1014.99 1015.45 1015.75 1015.91 1015.98 1016.00 1016.03 1016.12 1016.29 1016.54 1016.84 1017.17 1017.48 1017.76 1017.98 1018.14 1018.26 1018.36 1018.45 1018.55 1018.66 1018.78 1018.90 1018.99 1019.04 1019.03 1018.97 1018.86 1018.71
1007.86 1008.42 1008.89 1009.25 1009.53 1009.79 1010.07 1010.44 1010.95 1011.60 1012.36 1013.18 1014.00 1014.74 1015.34 1015.77 1016.02 1016.12 1016.12 1016.09 1016.08 1016.13 1016.27 1016.50 1016.79 1017.11 1017.43 1017.72 1017.95 1018.13 1018.26 1018.35 1018.43 1018.51 1018.60 1018.69 1018.77 1018.82 1018.83 1018.79 1018.71 1018.57 1018.40
1007.86 1008.34 1008.73 1009.04 1009.32 1009.61 1009.97 1010.44 1011.06 1011.81 1012.65 1013.52 1014.36 1015.08 1015.64 1016.02 1016.21 1016.25 1016.20 1016.13 1016.09 1016.12 1016.25 1016.47 1016.76 1017.09 1017.42 1017.71 1017.95 1018.13 1018.25 1018.34 1018.40 1018.46 1018.51 1018.56 1018.59 1018.59 1018.56 1018.48 1018.35 1018.18 1017.98
1007.85 1008.26 1008.60 1008.90 1009.20 1009.55 1009.99 1010.56 1011.27 1012.10 1012.98 1013.87 1014.69 1015.37 1015.87 1016.18 1016.31 1016.31 1016.23 1016.14 1016.09 1016.12 1016.26 1016.50 1016.80 1017.14 1017.47 1017.77 1018.00 1018.17 1018.28 1018.35 1018.39 1018.41 1018.42 1018.42 1018.41 1018.36 1018.28 1018.14 1017.96 1017.75 1017.51
1007.84 1008.22 1008.55 1008.87 1009.22 1009.64 1010.17 1010.82 1011.59 1012.46 1013.35 1014.21 1014.97 1015.59 1016.02 1016.27 1016.34 1016.31 1016.22 1016.15 1016.13 1016.20 1016.37 1016.63 1016.96 1017.31 1017.65 1017.93 1018.15 1018.30 1018.38 1018.42 1018.42 1018.40 1018.37 1018.34 1018.28 1018.19 1018.05 1017.87 1017.64 1017.38 1017.09
1007.86 1008.23 1008.59 1008.96 1009.39 1009.88 1010.49 1011.20 1012.00 1012.86 1013.72 1014.52 1015.20 1015.73 1016.09 1016.27 1016.33 1016.29 1016.23 1016.20 1016.24 1016.37 1016.60 1016.91 1017.26 1017.62 1017.94 1018.21 1018.39 1018.51 1018.55 1018.54 1018.51 1018.46 1018.40 1018.33 1018.24 1018.11 1017.95 1017.73 1017.46 1017.15 1016.81
1007.90 1008.30 1008.72 1009.17 1009.67 1010.25 1010.91 1011.66 1012.46 1013.28 1014.07 1014.78 1015.36 1015.80 1016.09 1016.23 1016.28 1016.28 1016.28 1016.32 1016.44 1016.65 1016.95 1017.30 1017.67 1018.03 1018.33 1018.56 1018.71 1018.77 1018.77 1018.72 1018.65 1018.57 1018.50 1018.41 1018.31 1018.17 1017.99 1017.75 1017.45 1017.11 1016.73
1007.95 1008.41 1008.91 1009.45 1010.04 1010.69 1011.39 1012.15 1012.92 1013.67 1014.36 1014.97 1015.45 1015.80 1016.03 1016.16 1016.23 1016.28 1016.36 1016.50 1016.72 1017.01 1017.37 1017.76 1018.15 1018.49 1018.76 1018.94 1019.03 1019.04 1019.00 1018.92 1018.82 1018.73 1018.65 1018.56 1018.47 1018.34 1018.16 1017.92 1017.62 1017.25 1016.84
1008.01 1008.55 1009.14 1009.77 1010.44 1011.14 1011.87 1012.61 1013.32 1013.99 1014.58 1015.08 1015.46 1015.74 1015.94 1016.07 1016.18 1016.30 1016.47 1016.71 1017.02 1017.39 1017.80 1018.22 1018.60 1018.91 1019.14 1019.27 1019.31 1019.28 1019.19 1019.08 1018.98 1018.89 1018.81 1018.75 1018.68 1018.57 1018.42 1018.19 1017.89 1017.52 1017.09
1008.10 1008.72 1009.40 1010.11 1010.84 1011.57 1012.30 1013.00 1013.65 1014.22 1014.71 1015.11 1015.41 1015.64 1015.81 1015.96 1016.12 1016.32 1016.58 1016.90 1017.29 1017.72 1018.16 1018.58 1018.95 1019.22 1019.41 1019.49 1019.48 1019.41 1019.30 1019.18 1019.08 1019.00 1018.95 1018.91 1018.87 1018.80 1018.67 1018.47 1018.18 1017.82 1017.38
1008.23 1008.93 1009.68 1010.44 1011.20 1011.95 1012.65 1013.30 1013.87 1014.35 1014.75 1015.07 1015.31 1015.51 1015.67 1015.85 1016.06 1016.33 1016.65 1017.04 1017.48 1017.94 1018.39 1018.79 1019.13 1019.37 1019.51 1019.55 1019.51 1019.42 1019.30 1019.19 1019.10 1019.04 1019.02 1019.01 1018.99 1018.95 1018.85 1018.67 1018.40 1018.05 1017.61
1008.44 1009.18 1009.97 1010.75 1011.52 1012.24 1012.90 1013.49 1013.98 1014.39 1014.72 1014.97 1015.18 1015.36 1015.54 1015.75 1016.00 1016.32 1016.69 1017.11 1017.57 1018.02 1018.46 1018.83 1019.12 1019.32 1019.42 1019.44 1019.39 1019.30 1019.19 1019.10 1019.03 1019.00 1019.00 1019.01 1019.01 1018.98 1018.89 1018.72 1018.47 1018.13 1017.71
1008.70 1009.47 1010.25 1011.02 1011.76 1012.44 1013.04 1013.56 1014.00 1014.34 1014.62 1014.85 1015.04 1015.23 1015.43 1015.67 1015.96 1016.30 1016.69 1017.12 1017.56 1017.98 1018.38 1018.70 1018.95 1019.11 1019.19 1019.20 1019.16 1019.08 1019.00 1018.94 1018.90 1018.89 1018.90 1018.91 1018.91 1018.87 1018.78 1018.61 1018.36 1018.03 1017.63
Thickness
5785 5784 5781 5779 5776 5773 5770 5768 5766 5765 5763 5760 5758 5756 5755 5755 5755 5755 5755 5755 5754 5754 5752 5751 5750 5750 5749 5748 5747 5746 5743 5741 5741 5739 5737 5739 5741 5741 5741 5741 5740 5739 5739
5783 5782 5780 5778 5776 5774 5772 5769 5768 5766 5765 5763 5761 5759 5757 5756 5756 5755 5755 5755 5754 5754 5753 5752 5750 5749 5748 5746 5745 5744 5741 5740 5739 5736 5732 5730 5731 5735 5738 5738 5738 5737 5736
5784 5783 5781 5779 5777 5775 5773 5772 5769 5767 5766 5765 5762 5760 5757 5755 5754 5753 5753 5754 5754 5753 5753 5752 5751 5749 5748 5745 5744 5743 5740 5737 5737 5737 5733 5727 5724 5728 5733 5735 5735 5735 5734
5788 5785 5783 5780 5779 5778 5777 5774 5771 5768 5766 5765 5762 5759 5755 5752 5753 5753 5753 5754 5754 5753 5753 5752 5750 5749 5747 5745 5744 5743 5741 5738 5735 5734 5734 5733 5731 5725 5724 5729 5732 5732 5732
5791 5788 5785 5784 5783 5782 5779 5776 5772 5769 5767 5765 5763 5760 5757 5756 5755 5754 5753 5753 5753 5753 5752 5751 5749 5748 5747 5745 5743 5742 5741 5739 5736 5734 5732 5730 5729 5728 5723 5722 5725 5728 5730
5794 5791 5789 5786 5783 5781 5779 5776 5772 5769 5767 5766 5764 5761 5758 5756 5754 5753 5752 5752 5752 5751 5751 5750 5749 5747 5746 5745 5743 5742 5741 5739 5737 5735 5733 5730 5728 5726 5724 5721 5722 5723 5727
5795 5790 5787 5785 5783 5780 5778 5776 5772 5769 5767 5765 5763 5762 5760 5758 5755 5754 5753 5751 5750 5750 5750 5749 5748 5747 5746 5744 5743 5741 5740 5739 5736 5734 5732 5731 5730 5729 5726 5723 5721 5721 5724
5794 5791 5789 5786 5784 5782 5779 5776 5772 5770 5768 5766 5764 5763 5761 5759 5757 5755 5754 5753 5752 5751 5751 5749 5748 5747 5746 5744 5742 5741 5739 5738 5736 5734 5732 5730 5729 5728 5726 5724 5721 5717 5718
5793 5790 5788 5786 5784 5782 5780 5777 5773 5770 5768 5767 5765 5762 5760 5759 5758 5756 5755 5754 5753 5752 5751 5749 5748 5746 5745 5743 5741 5739 5737 5736 5734 5733 5731 5729 5728 5727 5726 5724 5722 5717 5714
5791 5789 5787 5786 5784 5782 5779 5776 5773 5770 5769 5767 5764 5763 5760 5760 5758 5756 5754 5753 5752 5751 5750 5748 5747 5746 5744 5742 5739 5737 5736 5734 5732 5731 5729 5728 5726 5725 5723 5722 5720 5719 5716
5790 5788 5786 5785 5783 5780 5777 5774 5771 5768 5767 5765 5764 5762 5760 5759 5757 5755 5754 5753 5752 5751 5749 5747 5745 5744 5742 5740 5738 5735 5733 5731 5729 5728 5727 5725 5724 5722 5721 5720 5718 5716 5714
5788 5787 5784 5781 5778 5776 5775 5772 5769 5767 5765 5764 5762 5760 5758 5757 5755 5753 5752 5751 5749 5749 5747 5745 5743 5742 5740 5738 5736 5734 5731 5729 5727 5725 5724 5722 5721 5719 5718 5717 5715 5714 5712
5782 5780 5778 5776 5775 5774 5772 5770 5768 5765 5764 5762 5760 5757 5755 5753 5752 5750 5749 5747 5746 5746 5745 5743 5741 5740 5738 5736 5735 5733 5730 5728 5725 5723 5721 5720 5718 5716 5715 5713 5712 5711 5710
5775 5774 5772 5771 5772 5771 5770 5768 5765 5764 5761 5759 5757 5754 5753 5751 5749 5746 5745 5743 5743 5742 5741 5740 5739 5738 5736 5734 5732 5730 5727 5725 5723 5721 5719 5717 5716 5714 5712 5711 5709 5707 5706
5769 5769 5767 5766 5767 5766 5765 5764 5763 5761 5759 5756 5753 5752 5751 5749 5746 5744 5742 5741 5739 5738 5737 5736 5735 5734 5733 5731 5729 5726 5724 5722 5720 5718 5716 5715 5714 5713 5711 5709 5707 5705 5702
5764 5764 5764 5763 5761 5761 5762 5761 5759 5757 5754 5752 5750 5749 5747 5745 5742 5740 5739 5737 5735 5733 5732 5731 5731 5730 5730 5729 5726 5723 5720 5718 5716 5714 5713 5712 5711 5710 5708 5707 5705 5703 5699
5757 5758 5759 5759 5758 5757 5757 5755 5754 5753 5750 5747 5746 5744 5741 5739 5737 5736 5733 5732 5730 5728 5727 5726 5725 5725 5725 5724 5722 5719 5716 5714 5713 5711 5709 5709 5708 5706 5704 5702 5701 5699 5697
5751 5752 5752 5752 5752 5751 5750 5749 5747 5745 5744 5742 5740 5738 5735 5734 5732 5731 5727 5725 5724 5723 5721 5720 5719 5719 5719 5718 5715 5713 5710 5709 5708 5706 5705 5702 5701 5700 5697 5696 5694 5693 5691
5745 5745 5746 5746 5745 5743 5743 5742 5739 5738 5735 5733 5732 5731 5729 5728 5726 5724 5722 5720 5718 5717 5715 5715 5713 5712 5712 5711 5709 5706 5704 5702 5701 5700 5698 5696 5695 5694 5691 5688 5686 5685 5684
5738 5738 5738 5737 5735 5736 5736 5733 5731 5729 5727 5726 5725 5725 5724 5722 5720 5718 5716 5714 5711 5710 5709 5707 5706 5705 5704 5704 5702 5699 5697 5695 5694 5693 5692 5689 5688 5687 5683 5681 5678 5677 5677
5731 5732 5732 5730 5728 5728 5728 5725 5723 5722 5722 5721 5719 5718 5716 5715 5713 5711 5709 5707 5704 5702 5700 5698 5697 5696 5696 5696 5694 5691 5689 5688 5686 5685 5684 5683 5680 5678 5676 5673 5672 5671 5670
5723 5723 5723 5721 5721 5720 5719 5717 5715 5716 5715 5714 5712 5710 5709 5707 5705 5702 5700 5697 5695 5691 5689 5687 5686 5685 5686 5685 5685 5682 5680 5679 5677 5676 5676 5674 5672 5670 5668 5665 5664 5662 5659
5714 5714 5713 5711 5711 5711 5710 5708 5709 5709 5707 5705 5703 5701 5700 5698 5696 5693 5690 5687 5685 5682 5680 5676 5675 5674 5674 5674 5674 5673 5671 5670 5668 5667 5666 5664 5662 5660 5658 5656 5654 5652 5649
5705 5704 5703 5702 5701 5701 5701 5701 5701 5700 5698 5695 5693 5692 5690 5688 5687 5684 5682 5679 5676 5673 5670 5668 5665 5664 5664 5663 5662 5661 5661 5660 5658 5656 5655 5653 5651 5649 5647 5646 5644 5641 5639
5696 5696 5695 5694 5692 5692 5692 5692 5692 5691 5689 5687 5684 5682 5680 5679 5676 5674 5672 5670 5668 5665 5662 5660 5658 5655 5654 5653 5651 5650 5649 5648 5646 5644 5643 5641 5640 5638 5636 5634 5631 5629 5628
5687 5687 5686 5685 5684 5684 5684 5684 5684 5683 5680 5677 5675 5673 5671 5669 5667 5664 5661 5660 5658 5656 5654 5652 5649 5647 5645 5643 5642 5640 5638 5636 5634 5632 5631 5630 5628 5626 5624 5622 5620 5617 5616